Zurück zum Katalog

STARLINK-32778

AktivKommunikationVLEO
NORAD 62603·PAYLOAD·🇺🇸 United States

Gestartet Jan 13, 2025 von Cape Canaveral Space Force Station

Loading…

Nächste Überflüge (nächste 24 Stunden)

TLE

AktuellSource: CelesTrak SupGP

Epoche: Sep 15, 2026, 03:22 UTC

1 62603C 25008S   26258.14076389  .00004348  00000+0  15743-3 0  2582
2 62603  43.0030 288.4892 0001547 271.8577  61.0917 15.27584260    19

Verfolge STARLINK-32778 in Echtzeit mit AllMySat

Download on the App Store